O3B FM15 (43231 NORAD) Tracking and Keplerian Element Data

This shows tracking and keplerian element data for the satellite.

Feedback or suggestion? Click here.




ElementValue
Catalog43231
NameO3B FM15
Epoch Orbit6468
Epoch Day268.23728046
Epoch Year2021
RAAN4.0947
Inclination0.0536
Eccentricity0.000259
Argument of Perigee179.467
Mean Anonmoly176.4399
Mean Motion5.0011567
Decay Rate-2.7E-07
L11 43231U 18024A 21268.23728046 -.00000027 00000-0 00000-0 0 9999
L22 43231 0.0536 4.0947 0002590 179.4670 176.4399 5.00115670 64681

Live tracking and technical data element details for O3B FM15 (NORAD 43231). O3B FM15 can be tracked NOW for your location showing map with azimuth and elevation plus other details from your city location.

Track the satellite on the map from your city or location and see movement details for azimuth, elevation, latitude, longitude, range, height, and movement on the map or in text.







IsCatalogInMostPopularTable: catalog: 43231, numindb: 565
Update: records affected: 1



GetName: 43231 O3B FM15

Hit Count: updated at: Mon, 27 Sep 2021 00:20:59 GMT